Helicity
61 49 13 10 30 19 28 60 -12 -19 5 18 15 21 31 26 12 36 10 47 40 40 8 -20 -9 21 9 8 3 3 4 6 11 10 14 20 19 15 13 6 0 2 -1 -2 -6 -3 -1 -1 -6
72 54 7 60 5 83 39 11 10 25 23 36 39 48 38 12 28 23 69 47 24 39 30 2 0 26 16 -1 11 9 4 5 14 10 19 23 9 16 6 3 0 -1 -6 -10 -10 -8 -5 -6 -9
52 37 34 6 22 41 28 26 26 14 15 18 33 64 13 13 26 37 32 38 32 35 47 45 28 34 5 14 13 17 3 -1 4 33 23 12 3 6 2 -3 -2 -1 -3 -7 -9 -10 -12 -13 -10
29 23 1 11 3 -5 18 -18 0 9 27 22 66 48 20 24 53 53 52 38 28 33 29 45 33 18 13 15 19 20 11 -4 12 27 16 -3 1 3 -3 -1 -7 -4 -10 -13 -15 -9 -5 -16 3
9 -2 -19 7 -9 -4 -15 -11 26 39 29 50 46 57 50 24 46 48 34 32 29 27 45 13 29 16 9 14 12 14 11 5 11 11 -5 -3 1 2 -8 -7 -9 -17 -12 -14 -17 1 8 20 21
17 9 -21 8 5 8 -4 1 52 44 38 57 11 36 47 27 71 30 17 32 45 40 39 27 31 23 26 -1 12 15 12 2 8 3 0 -2 -6 -6 -7 -13 -11 -13 -13 -7 -11 19 30 34 29
7 -25 -25 -35 26 34 3 -4 22 36 43 41 70 42 43 78 87 30 20 37 69 78 63 43 35 35 22 0 19 21 9 9 7 8 12 4 -5 -12 -15 -15 -3 -6 -14 -9 -6 26 34 39 28
62 -3 -8 -30 -25 -12 0 -26 32 38 16 80 52 59 51 91 78 33 38 48 91 93 76 57 58 48 43 35 28 20 23 7 6 16 18 15 -9 -13 -21 -19 15 1 3 5 -2 10 18 27 28
58 -14 -34 -41 -22 -7 -5 20 23 31 71 55 31 60 47 153 109 42 14 -16 58 79 70 46 48 56 60 66 50 47 49 41 28 34 32 25 27 9 -15 29 24 17 18 21 3 9 2 23 40
51 17 3 44 8 47 19 35 69 42 82 48 42 61 166 147 90 41 6 -10 1 27 46 49 49 61 69 70 80 75 88 77 63 46 40 37 36 36 25 13 27 35 45 51 24 17 32 44 29
70 63 66 36 25 13 10 23 41 56 72 90 81 130 137 112 59 29 9 -1 4 18 44 51 63 67 72 86 82 105 65 105 52 36 48 39 39 35 22 23 32 55 52 61 41 28 21 17 30
61 92 81 36 -18 47 57 28 52 84 17 50 113 115 105 67 39 22 15 13 2 -1 21 54 55 55 76 82 98 90 56 64 35 34 44 41 35 35 33 44 48 65 50 53 38 28 34 46 40
25 14 51 41 5 53 54 84 56 79 42 74 141 103 59 41 25 15 18 25 21 6 -7 6 35 53 77 83 99 69 69 58 40 42 50 46 44 45 43 55 56 51 44 36 29 20 15 22 31
-12 5 30 -4 14 56 73 90 33 12 81 107 118 85 33 25 12 12 7 10 30 13 5 -7 18 43 73 69 48 -3 56 57 36 50 55 56 57 64 61 51 50 41 33 23 22 19 17 18 13
-39 -25 18 45 31 48 63 91 136 82 100 120 94 78 25 21 9 8 22 17 28 26 12 7 -7 10 43 54 6 -4 50 47 35 50 65 62 68 71 70 45 38 22 26 28 23 7 2 6 3
-54 -46 -4 21 35 37 50 34 -34 133 133 121 89 63 27 22 15 11 24 32 18 -29 17 16 13 -19 20 36 25 11 -1 34 45 65 70 67 57 60 48 51 25 20 15 19 25 19 12 -4 1
-17 -17 -5 38 46 37 37 67 16 102 138 140 98 63 39 22 22 18 30 29 32 24 25 26 20 7 20 43 45 44 -12 51 42 50 65 56 55 52 49 54 21 19 17 18 18 14 17 13 5
-2 -31 -25 6 6 70 88 184 82 28 118 130 133 61 32 27 28 30 35 24 22 19 28 40 12 6 8 45 57 37 -45 59 32 39 47 38 42 36 34 41 40 17 11 25 18 18 10 13 3
-31 -53 7 -1 22 30 42 133 72 54 98 108 89 84 31 14 9 20 29 35 22 23 30 28 31 -15 -6 17 14 30 18 28 29 41 38 31 30 17 23 28 30 23 21 30 27 33 17 9 3
-25 -59 9 -13 9 9 28 104 78 104 168 169 150 121 66 11 47 30 54 56 46 38 40 40 35 3 -37 -44 1 32 37 38 41 43 29 25 6 4 17 19 13 25 14 23 34 34 21 13 3
-30 -90 -34 12 18 10 -22 6 17 21 119 148 189 165 89 50 40 35 58 84 67 61 45 47 26 7 -29 -53 -46 39 54 48 46 41 14 7 3 3 9 15 9 13 17 21 21 22 19 8 1
-39 -75 -74 -39 10 33 29 -14 17 26 20 96 193 245 212 85 38 8 29 64 94 85 44 21 21 4 -5 -21 -38 -39 -26 0 28 31 27 13 -2 8 11 9 15 14 6 12 26 13 14 1 -6
-7 -31 -35 9 27 45 57 21 29 46 2 70 161 213 228 162 68 61 37 76 96 63 74 43 25 12 6 20 -13 -44 -36 22 31 31 21 16 20 19 21 8 16 10 3 5 11 17 16 3 -2
81 30 39 39 50 29 71 63 22 9 32 42 28 125 140 163 67 44 35 21 23 36 42 46 37 26 20 17 15 -11 -31 -13 22 24 22 15 22 31 23 23 30 12 4 9 10 17 3 0 -8
72 64 117 94 82 44 92 75 -25 -2 59 61 102 26 87 99 63 35 27 36 23 31 53 53 50 30 24 26 17 9 -11 -21 2 17 19 25 25 30 21 43 47 30 15 18 20 19 16 10 3
76 79 110 80 60 70 73 17 35 21 41 14 9 24 -15 101 72 71 88 60 74 54 60 66 62 51 54 48 42 15 4 -22 9 18 35 37 30 34 37 34 39 36 32 35 34 29 20 17 18
101 116 113 104 111 49 67 29 -10 -5 65 11 -2 22 35 64 91 86 55 62 67 36 38 76 72 53 57 71 61 54 14 -1 -9 18 28 31 27 25 20 29 35 32 29 37 52 38 28 31 31
88 98 93 100 52 37 54 37 51 23 54 82 22 6 30 44 56 67 41 66 32 27 37 25 35 49 60 47 45 64 68 34 7 -3 16 19 13 28 33 34 34 36 39 39 43 45 40 42 34
100 80 114 97 95 66 27 27 25 -5 38 79 56 20 15 18 45 50 20 18 25 6 9 25 31 38 52 38 58 71 76 59 29 22 15 21 -4 -2 8 25 38 49 56 61 64 58 50 38 41
58 58 54 89 113 104 103 -3 34 -15 34 57 110 55 18 -23 5 39 19 12 34 46 42 30 21 57 75 52 53 46 53 55 32 15 13 8 7 -2 -3 10 37 57 60 60 59 59 59 56 50
Wind_Speed
35 31 30 28 28 31 37 38 32 35 33 33 29 30 26 29 29 28 22 16 26 33 34 32 28 14 21 24 32 37 39 43 42 45 45 43 45 46 46 46 47 48 49 51 53 52 52 52 51
36 33 28 28 30 23 34 32 38 41 40 38 33 31 30 33 30 23 17 11 31 27 27 27 18 2 8 38 30 34 36 42 42 45 43 42 45 44 45 46 48 49 50 52 52 54 54 54 54
36 30 30 37 25 27 35 39 41 37 36 33 33 33 24 31 25 17 11 24 25 21 21 14 17 19 45 4 17 24 32 42 44 39 42 44 46 46 46 48 49 50 51 52 53 55 55 56 55
32 29 33 34 32 30 31 34 36 33 36 37 36 35 26 31 27 17 21 25 26 18 22 18 22 38 38 36 14 9 17 42 34 34 43 43 48 47 48 49 50 51 51 52 53 53 53 51 50
38 37 34 28 30 31 29 30 32 33 35 34 30 33 33 24 19 20 26 19 24 17 2 24 19 28 24 12 14 17 15 36 16 23 41 46 48 49 49 49 49 50 51 52 52 50 48 48 45
36 35 31 24 27 35 31 31 32 33 35 37 34 35 32 18 24 24 24 13 2 7 6 7 5 5 30 43 26 20 13 16 15 18 15 48 49 49 50 50 49 50 50 49 49 45 44 43 41
41 39 34 27 26 29 33 31 31 34 35 36 35 35 30 32 25 23 22 12 6 21 31 14 6 12 35 23 17 17 23 37 15 32 15 49 49 49 49 49 47 48 49 48 46 42 40 39 39
36 39 38 28 30 31 29 29 30 31 33 36 36 35 30 32 31 23 15 8 18 28 26 30 21 14 14 15 23 31 39 36 36 26 37 42 50 50 48 46 45 45 45 44 43 41 39 35 34
29 40 39 32 30 31 10 29 30 31 31 33 35 36 27 34 31 25 24 36 10 32 32 27 21 17 21 26 36 33 37 33 27 30 36 22 38 44 46 33 43 42 42 42 42 39 36 34 31
31 39 32 32 30 32 30 32 31 30 30 31 36 37 37 35 34 33 34 41 30 10 10 21 18 18 30 32 26 24 28 30 32 32 36 30 33 35 39 43 41 38 39 40 40 37 33 32 29
33 34 25 20 29 26 28 29 28 25 25 25 28 34 35 35 36 39 41 44 31 4 16 22 20 25 31 24 19 18 29 37 33 23 32 31 32 37 43 43 42 40 39 38 36 34 31 30 27
26 23 26 26 35 26 26 29 21 26 28 28 30 33 34 37 37 41 39 41 39 37 1 31 29 29 29 21 14 14 31 46 30 19 28 29 36 39 42 42 41 39 38 36 33 31 29 28 25
27 22 29 29 32 29 30 24 30 28 10 29 31 34 36 39 40 43 45 45 49 50 56 53 38 33 27 16 10 16 48 44 25 19 26 32 38 41 44 42 41 38 36 35 33 31 29 27 24
23 25 28 30 33 32 27 25 34 29 27 27 31 34 39 41 41 43 47 47 48 53 59 60 52 40 31 21 12 56 49 41 22 26 36 40 40 39 42 42 41 38 34 33 32 31 30 27 23
30 28 26 25 28 29 29 23 25 26 30 30 33 34 38 41 40 42 45 49 45 51 56 59 62 57 43 24 17 58 51 47 19 26 31 32 34 40 41 43 42 38 35 34 33 33 31 27 22
24 27 22 26 28 31 28 32 37 30 32 32 34 34 35 39 43 41 47 48 49 8 29 21 7 54 48 34 23 18 52 49 37 38 35 34 36 40 42 40 39 38 36 35 33 33 34 30 25
28 30 23 24 26 27 26 28 35 26 28 30 32 35 35 35 40 43 47 47 44 34 22 16 13 12 3 28 47 52 5 41 34 30 32 34 37 37 39 40 39 35 35 36 36 35 33 33 31
18 25 20 25 22 17 15 24 37 17 21 27 29 34 38 37 40 42 43 44 35 26 25 20 11 3 4 29 40 52 8 40 32 31 34 37 36 36 35 35 34 38 35 34 35 36 35 36 35
21 18 33 27 22 16 18 29 36 13 15 21 25 31 37 40 36 39 38 37 33 27 20 11 13 15 9 16 15 36 40 45 44 45 36 31 37 41 39 38 39 37 39 34 34 37 37 36 35
20 27 41 24 28 8 45 42 47 16 18 16 18 26 33 35 32 34 37 35 33 30 25 18 28 26 33 15 10 30 30 45 42 46 49 40 47 47 44 43 43 41 39 36 34 35 39 39 37
16 1 34 32 52 9 42 46 42 14 16 12 21 23 25 34 32 32 34 38 33 31 32 26 29 28 34 36 9 28 35 37 35 39 41 39 47 47 45 46 45 43 41 41 37 36 38 41 40
8 12 8 1 40 48 41 51 52 40 11 17 25 25 25 32 34 31 32 35 37 35 31 30 26 31 33 33 30 35 12 14 38 37 43 43 46 42 45 49 49 47 45 43 43 42 43 44 44
20 20 22 29 34 36 29 36 52 41 52 30 20 28 29 29 32 33 36 39 44 31 32 34 34 36 33 31 40 43 55 54 43 46 46 45 43 41 40 45 45 50 51 48 46 46 47 47 48
19 20 31 33 31 38 30 27 49 11 3 52 44 3 25 27 36 43 41 34 40 32 26 30 33 38 39 35 39 45 55 68 57 54 53 53 49 42 40 37 39 48 51 51 51 48 50 51 53
20 22 33 38 38 49 36 26 28 33 36 39 59 55 8 19 34 37 36 28 24 33 32 30 34 37 37 44 40 44 52 66 69 59 51 47 48 47 43 29 28 42 49 50 49 50 52 52 52
19 18 31 47 47 49 38 40 42 37 55 51 52 54 47 5 21 25 29 34 31 35 36 31 32 38 37 39 43 38 50 44 56 57 47 47 45 43 43 38 34 33 39 40 42 46 51 50 50
23 28 31 40 43 52 47 52 68 65 63 42 48 40 37 9 19 22 24 35 33 36 41 39 33 37 35 38 32 32 36 36 11 21 31 37 39 40 38 30 28 33 34 31 38 51 52 50 49
26 17 36 40 55 62 48 52 57 55 54 47 44 49 41 11 16 29 29 34 39 43 47 38 36 37 36 32 28 29 28 32 34 17 11 10 23 35 37 34 33 35 38 36 31 37 45 50 55
23 31 36 39 41 61 68 50 38 49 51 51 52 53 52 18 8 23 22 27 40 36 33 36 30 23 24 23 20 17 18 25 29 28 17 11 12 9 14 18 21 27 32 33 33 37 46 45 49
33 40 30 42 40 40 50 64 47 61 57 57 60 55 53 36 6 9 21 19 30 34 35 38 37 30 24 18 16 16 8 9 19 24 25 17 17 18 19 11 10 26 38 43 45 52 53 51 54
Wind_Direction
72 64 43 334 5 42 64 63 97 77 59 45 53 51 46 334 309 288 301 274 109 113 112 106 94 239 230 224 80 87 86 92 89 99 99 95 98 109 110 108 101 96 93 99 96 93 92 88 81
65 67 81 276 226 12 71 104 82 58 56 53 43 37 351 274 293 321 27 70 111 108 108 105 88 342 263 208 84 86 87 97 96 106 102 97 109 110 115 110 107 105 105 101 94 102 106 95 92
77 131 136 98 20 27 52 52 73 58 56 68 62 1 267 257 316 38 357 94 102 102 104 97 92 85 209 314 67 70 81 109 125 89 108 112 118 114 113 114 113 115 117 108 100 107 111 105 101
84 118 89 60 54 44 33 70 74 74 57 33 60 46 320 271 63 305 85 94 99 97 103 100 101 119 118 111 270 330 37 134 90 82 106 102 121 118 118 119 121 123 120 116 114 117 122 123 123
36 31 16 40 45 48 38 77 95 92 56 72 90 77 68 260 323 62 99 93 101 98 160 109 99 105 98 71 274 273 306 117 343 40 99 118 120 126 122 125 129 129 123 126 125 133 134 133 128
42 48 3 6 40 108 79 69 92 79 56 51 14 50 52 321 47 80 98 90 46 91 71 213 62 27 237 213 251 269 347 158 311 25 29 140 138 129 119 120 136 133 131 137 135 144 145 140 130
6 7 8 39 48 41 26 39 71 71 55 58 46 36 21 94 68 80 92 81 270 244 233 263 310 285 235 112 282 283 273 222 300 218 270 155 139 124 117 124 148 144 137 141 144 152 154 147 133
93 19 15 4 68 65 17 348 81 79 34 58 54 47 80 108 91 77 69 67 248 240 243 236 257 278 281 289 265 246 228 231 222 237 208 189 142 134 114 125 158 157 151 151 149 149 150 151 141
134 19 10 5 67 79 109 67 55 68 54 61 37 43 31 95 91 84 89 114 249 236 237 244 258 267 264 257 232 242 232 244 249 232 215 240 198 171 140 189 167 167 163 158 150 149 144 150 147
103 37 33 101 88 120 91 88 78 72 73 44 23 20 75 95 102 107 115 128 117 107 266 259 266 271 244 243 257 267 258 251 235 228 219 227 213 202 186 169 175 182 175 164 155 150 155 155 154
77 68 167 95 76 53 51 54 63 65 112 103 83 73 88 102 111 122 130 141 126 104 268 260 265 262 246 260 278 283 268 237 231 245 226 227 223 203 180 175 177 183 177 173 169 165 162 165 166
92 133 153 97 47 94 118 160 40 120 188 80 74 86 95 113 120 131 128 133 132 134 25 249 251 249 244 261 290 303 249 210 238 257 236 236 220 208 191 188 190 192 189 186 182 182 179 175 166
95 84 127 95 51 109 141 114 197 164 27 61 77 92 107 118 124 136 142 144 157 162 175 217 237 242 247 275 327 303 205 212 249 262 250 235 222 210 196 196 198 201 197 196 191 189 183 182 177
110 114 132 46 46 81 110 118 264 259 82 65 93 104 117 126 129 135 153 151 158 174 182 196 223 235 244 268 316 186 205 219 257 255 231 225 223 218 207 202 204 207 216 215 213 206 200 209 197
75 113 151 160 45 60 63 108 142 67 100 96 108 108 124 137 136 143 149 164 150 170 186 186 196 215 239 263 104 179 209 215 279 267 245 236 231 220 216 207 208 216 226 227 226 216 209 221 156
114 82 150 108 63 5 53 251 333 109 113 118 123 123 126 140 155 149 160 162 185 18 115 106 94 183 230 251 259 261 185 219 236 230 233 238 232 222 216 221 221 228 233 234 237 239 247 234 216
13 189 164 184 99 64 43 226 319 105 124 128 133 140 139 140 154 160 164 163 154 131 105 89 94 116 197 251 231 216 232 235 245 252 247 244 238 237 233 233 234 242 251 248 238 250 255 255 242
80 197 60 177 79 113 140 202 219 63 124 148 142 148 156 153 159 157 159 161 143 123 119 104 76 263 230 245 236 209 117 240 252 257 251 246 248 247 245 251 254 241 251 267 261 252 259 279 266
11 152 205 195 190 161 183 216 231 98 128 143 149 155 165 169 156 157 155 152 144 131 113 79 86 114 142 245 240 241 239 235 236 241 255 268 254 245 248 247 240 252 255 279 284 277 278 286 275
0 226 219 309 19 68 260 240 250 136 158 151 150 162 170 168 156 156 157 153 151 143 133 112 125 125 139 140 222 248 250 239 244 241 234 255 240 242 247 246 232 254 259 275 299 302 294 296 283
336 311 205 314 310 52 255 261 307 32 154 152 170 173 176 178 171 162 159 161 155 152 151 138 134 130 139 143 152 252 246 249 257 255 255 261 244 243 249 247 245 251 260 269 290 300 292 279 284
241 323 210 1 334 317 334 286 278 321 54 163 184 182 182 183 181 173 167 165 164 160 151 149 139 140 141 142 144 151 165 261 252 252 250 256 247 255 252 252 254 260 259 271 275 278 285 281 277
312 331 332 334 334 337 341 334 282 317 288 204 187 193 193 187 182 178 174 170 170 155 153 155 152 152 148 151 156 158 171 232 247 246 253 256 258 266 270 263 264 261 258 267 275 279 281 281 278
338 329 323 329 332 319 332 339 313 29 134 285 310 141 192 186 183 180 176 169 168 158 152 152 156 160 159 157 162 167 177 205 238 247 249 250 255 268 276 282 283 271 269 271 273 282 281 281 279
311 313 308 309 310 304 331 330 311 265 227 225 260 287 141 177 180 179 176 172 170 166 159 155 158 163 162 167 168 172 181 200 229 250 259 263 265 268 277 294 297 283 271 271 276 282 283 285 288
291 293 301 299 303 306 324 317 320 325 295 300 288 303 296 85 174 179 177 174 171 169 165 160 160 164 165 167 172 173 183 192 249 252 263 268 274 279 280 286 293 296 292 294 297 294 287 288 290
294 288 307 303 309 304 308 307 282 286 277 303 304 325 323 123 161 178 175 168 168 167 168 165 161 164 164 166 165 168 173 176 222 270 275 279 281 284 288 295 299 299 305 312 303 289 290 292 295
287 300 294 301 294 293 306 309 308 297 288 288 299 306 324 337 149 164 168 167 166 167 170 169 166 164 162 162 164 166 170 176 180 180 199 257 283 285 287 294 297 300 301 307 311 309 302 296 293
296 293 295 300 300 294 293 304 313 297 291 286 293 294 303 316 146 163 173 168 164 166 171 175 177 182 171 168 171 171 169 173 178 184 192 201 194 231 283 296 301 304 306 308 309 308 303 304 299
295 292 293 291 298 304 301 285 302 287 287 281 279 296 291 292 145 149 174 185 163 167 171 175 178 182 187 194 192 187 195 196 180 183 184 188 189 188 192 210 274 301 301 301 301 298 297 297 297